Find Starlink 37088

NORAD ID: 68322 Int'l Des: 2026-059 Owner: SPXS Country: US Constellation: starlink operational
LEOCIRCULAR

Current View

Loading 3D Globe...

About Starlink 37088

Starlink 37088 (NORAD 68322) is a starlink constellation satellite (v2 mini) launched Mar 22, 2026 by SPXS of US. It operates in LEO, CIRCULAR orbit with a mass of 575.00 kg.

About Starlink 37088

Description loading...

Upcoming Passes

Passes for default location (London). Set your location on the main map for personalized predictions.

Altitude History

Loading altitude history...

Two-Line Element Set

1 68322U 26059B 26171.42702399 .00016318 00000-0 49300-3 0 9994
2 68322 53.1573 226.1841 0001141 77.8066 282.3065 15.34402317 13978
Epoch: Jun 20, 2026 • Age: 30 hours

Current Status

Altitude 462.8 km
Velocity 7.64 km/s
Sub-Earth Point 20.46°N, 135.05°W
Launch Date Mar 22, 2026
Age 0.2 years
Type internet

Technical Details

Classification Payload
Mass 575.00 kg
Dry Mass 530.00 kg
Total Mass 575.00 kg
Length 0.30 m
Diameter 4.10 m
Span 29.00 m
Shape Box + pan
Manufacturer SPXS
Bus Type Starlink V2MO
Phase Status In Orbit
Owner/State SPXS/US

Most Searched